Location: Molino di Ancona
(43.6167°N, 13.3667°E)
Time: 00:03:52
(UTC+00:00)

ATLAS CENTAUR R/B - Pass Details

Date: 15 December 2019
Orbit: 454 x 694 km, 64.6° (Epoch: 15 January)

Event Time Altitude Azimuth Distance (km) Brightness Sun altitude
Exits shadow 04:42:34 19° 351° (N) 1,388 3.1 -19.1°
Maximum altitude 04:45:01 35° 47° (NE) 891 2.6 -18.7°
Drops below altitude 10° 04:48:37 10° 114° (ESE) 1,736 5.1 -18.0°
Sets 04:50:49 0° 124° (SE) 2,581 6.1 -17.6°
